This demonstration page uses our WeatherBlox Daily Observations layout. Learn more.

Left ArrowRight Arrow

41.55636, -103.73856

Hourly Observations for August 27, 2021

Temp ( °F °C ) Dew Point ( °F °C ) Humidity (%) Winds ( mph kmh ) Pressure ( in mb ) Visibility ( mi km ) Precip ( " mm )
12:58 am 00:58 Partly Cloudy 64 17.5 47 8.3 55 55 SW 8 13 29.85 1011 10 16 0.00 0.00
1:58 am 01:58 Partly Cloudy 61 16.1 48 8.7 62 62 SSW 10 17 29.83 1010 10 16 0.00 0.00
2:58 am 02:58 Clear 61 16.2 45 7.2 55 55 SW 7 11 29.85 1011 10 16 0.00 0.00
3:58 am 03:58 Clear 56 13.6 44 6.9 64 64 SSW 13 20 29.85 1011 10 16 0.00 0.00
4:58 am 04:58 Clear 58 14.5 44 6.4 59 59 SW 13 20 29.85 1011 10 16 0.00 0.00
5:58 am 05:58 Clear 58 14.6 42 5.5 55 55 SSW 9 15 29.85 1011 10 16 0.00 0.00
6:58 am 06:58 Sunny 57 14 43 6.1 59 59 SW 10 17 29.87 1012 10 16 0.00 0.00
7:58 am 07:58 Sunny 64 17.6 44 6.7 49 49 SW 10 17 29.88 1012 10 16 0.00 0.00
8:58 am 08:58 Sunny 73 22.8 39 3.9 29 29 W 12 19 29.86 1011 10 16 0.00 0.00
9:58 am 09:58 Sunny 76 24.3 38 3.3 26 26 NW 10 17 29.87 1012 10 16 0.00 0.00
10:58 am 10:58 Sunny 80 26.8 37 3 21 21 NW 7 11 29.85 1011 10 16 0.00 0.00
11:58 am 11:58 Sunny 84 28.7 36 2 18 18 N 6 9 29.84 1010 10 16 0.00 0.00
12:58 pm 12:58 Sunny 85 29.6 36 2.2 17 17 N 6 9 29.81 1010 10 16 0.00 0.00
1:58 pm 13:58 Sunny 89 31.4 34 1 14 14 E 8 13 29.79 1009 10 16 0.00 0.00
2:58 pm 14:58 Mostly Sunny 92 33.3 35 1.7 13 13 NNE 6 9 29.75 1008 10 16 0.00 0.00
3:58 pm 15:58 Mostly Cloudy 91 32.8 34 0.9 13 13 WSW 14 22 29.75 1007 10 16 0.00 0.00
4:58 pm 16:58 Mostly Cloudy 87 30.4 37 3 17 17 ENE 17 28 29.74 1007 10 16 0.00 0.00
5:58 pm 17:58 Partly Cloudy 90 32.3 36 2 14 14 ENE 10 17 29.74 1007 10 16 0.00 0.00
6:58 pm 18:58 Sunny 85 29.7 38 3.5 19 19 E 6 9 29.74 1007 10 16 0.00 0.00
7:58 pm 19:58 Clear 80 26.9 38 3.3 22 22 ESE 7 11 29.74 1007 10 16 0.00 0.00
8:58 pm 20:58 Partly Cloudy 78 25.5 40 4.6 26 26 SW 7 11 29.75 1007 10 16 0.00 0.00
9:58 pm 21:58 Mostly Clear 78 25.7 39 3.7 24 24 SW 8 13 29.76 1008 10 16 0.00 0.00
10:58 pm 22:58 Mostly Cloudy with Light Showers 80 26.6 41 4.8 25 25 N 6 9 29.78 1009 10 16 0.00 0.00
11:58 pm 23:58 Mostly Cloudy 76 24.3 44 6.6 32 32 ENE 6 9 29.79 1009 10 16 0.00 0.00

Powered by AerisWeather